QPF
0.00 0.00 0.00 0.00 0.00 0.00 0.00 0.00 0.00 0.00 0.00 0.00 0.00 0.00 0.00 0.00 0.00 0.00 0.00 0.00 0.00 0.00 0.00 0.00 0.00 0.00 0.00 0.00 0.00 0.00 0.00 0.00 0.00 0.00 0.00 0.00 0.00 0.00 0.00 0.00 0.00 0.00 0.00 0.00
0.00 0.00 0.00 0.00 0.00 0.00 0.00 0.00 0.00 0.00 0.00 0.00 0.00 0.00 0.00 0.00 0.00 0.00 0.00 0.00 0.00 0.00 0.00 0.00 0.00 0.00 0.00 0.00 0.00 0.00 0.00 0.00 0.00 0.00 0.00 0.00 0.00 0.00 0.00 0.00 0.00 0.00 0.00 0.00
0.00 0.00 0.00 0.00 0.00 0.00 0.00 0.00 0.00 0.00 0.00 0.00 0.00 0.00 0.00 0.00 0.00 0.00 0.00 0.00 0.00 0.00 0.00 0.00 0.00 0.00 0.00 0.00 0.00 0.00 0.00 0.00 0.00 0.00 0.00 0.00 0.00 0.00 0.00 0.00 0.00 0.00 0.00 0.00
0.00 0.00 0.00 0.00 0.00 0.00 0.00 0.00 0.00 0.00 0.00 0.00 0.00 0.00 0.00 0.00 0.00 0.00 0.00 0.00 0.00 0.00 0.00 0.00 0.00 0.00 0.00 0.00 0.00 0.00 0.00 0.00 0.00 0.00 0.00 0.00 0.00 0.00 0.00 0.00 0.00 0.00 0.00 0.00
0.01 0.00 0.00 0.00 0.00 0.00 0.00 0.00 0.00 0.00 0.00 0.00 0.00 0.00 0.00 0.00 0.00 0.00 0.00 0.00 0.00 0.00 0.00 0.00 0.00 0.00 0.00 0.00 0.00 0.00 0.00 0.00 0.00 0.00 0.00 0.00 0.00 0.00 0.00 0.00 0.00 0.00 0.00 0.00
0.00 0.00 0.00 0.00 0.00 0.00 0.00 0.00 0.00 0.00 0.00 0.00 0.00 0.00 0.00 0.00 0.00 0.00 0.00 0.00 0.00 0.00 0.00 0.00 0.00 0.00 0.00 0.00 0.00 0.00 0.00 0.00 0.00 0.00 0.00 0.00 0.00 0.00 0.00 0.00 0.00 0.00 0.00 0.00
0.00 0.00 0.00 0.00 0.00 0.00 0.00 0.00 0.00 0.00 0.00 0.00 0.00 0.00 0.00 0.00 0.00 0.00 0.00 0.00 0.00 0.00 0.00 0.00 0.00 0.00 0.00 0.00 0.00 0.00 0.00 0.00 0.00 0.00 0.00 0.00 0.00 0.00 0.00 0.00 0.00 0.00 0.00 0.00
0.00 0.00 0.00 0.00 0.00 0.00 0.00 0.00 0.00 0.00 0.00 0.00 0.00 0.00 0.00 0.00 0.00 0.00 0.00 0.00 0.00 0.00 0.00 0.00 0.00 0.00 0.00 0.00 0.00 0.00 0.00 0.00 0.00 0.00 0.00 0.00 0.00 0.00 0.00 0.00 0.00 0.00 0.00 0.00
0.00 0.00 0.00 0.00 0.00 0.00 0.00 0.00 0.00 0.00 0.00 0.00 0.00 0.00 0.00 0.00 0.00 0.00 0.00 0.00 0.00 0.00 0.00 0.00 0.00 0.00 0.00 0.00 0.00 0.00 0.00 0.00 0.00 0.00 0.00 0.00 0.00 0.00 0.00 0.00 0.00 0.00 0.00 0.00
0.00 0.00 0.00 0.00 0.00 0.00 0.00 0.00 0.00 0.01 0.01 0.01 0.00 0.00 0.00 0.01 0.02 0.01 0.01 0.00 0.00 0.00 0.00 0.00 0.00 0.00 0.00 0.00 0.00 0.00 0.00 0.00 0.00 0.00 0.00 0.00 0.00 0.00 0.00 0.00 0.00 0.00 0.00 0.00
0.00 0.00 0.00 0.00 0.00 0.00 0.00 0.00 0.00 0.00 0.00 0.01 0.01 0.00 0.00 0.00 0.00 0.02 0.02 0.01 0.01 0.02 0.02 0.01 0.00 0.00 0.00 0.00 0.00 0.00 0.00 0.00 0.00 0.00 0.00 0.00 0.00 0.00 0.00 0.00 0.00 0.00 0.00 0.00
0.00 0.00 0.00 0.00 0.00 0.00 0.00 0.00 0.00 0.00 0.00 0.00 0.00 0.00 0.00 0.00 0.00 0.00 0.01 0.01 0.01 0.01 0.02 0.02 0.01 0.00 0.00 0.00 0.00 0.00 0.00 0.00 0.00 0.00 0.00 0.00 0.00 0.00 0.00 0.00 0.00 0.00 0.00 0.00
0.00 0.00 0.00 0.00 0.00 0.00 0.01 0.01 0.01 0.03 0.02 0.00 0.00 0.00 0.00 0.00 0.00 0.00 0.00 0.00 0.01 0.00 0.00 0.00 0.00 0.00 0.00 0.00 0.00 0.00 0.00 0.00 0.00 0.00 0.00 0.00 0.00 0.00 0.00 0.00 0.00 0.00 0.00 0.00
0.00 0.00 0.00 0.00 0.00 0.00 0.00 0.01 0.01 0.03 0.02 0.01 0.00 0.00 0.00 0.00 0.00 0.00 0.00 0.00 0.00 0.00 0.00 0.00 0.00 0.00 0.00 0.00 0.00 0.00 0.00 0.00 0.00 0.00 0.00 0.00 0.00 0.00 0.00 0.00 0.00 0.00 0.00 0.00
0.00 0.01 0.01 0.01 0.00 0.00 0.00 0.00 0.00 0.01 0.01 0.00 0.00 0.00 0.00 0.00 0.00 0.00 0.00 0.00 0.00 0.00 0.00 0.00 0.00 0.00 0.00 0.00 0.00 0.00 0.00 0.00 0.00 0.00 0.00 0.00 0.00 0.00 0.00 0.00 0.00 0.00 0.00 0.00
0.00 0.00 0.00 0.00 0.00 0.00 0.00 0.00 0.00 0.01 0.01 0.00 0.00 0.00 0.00 0.00 0.00 0.00 0.00 0.00 0.00 0.00 0.00 0.00 0.00 0.00 0.00 0.00 0.00 0.00 0.00 0.00 0.00 0.00 0.00 0.00 0.00 0.00 0.00 0.00 0.00 0.00 0.00 0.00
0.00 0.00 0.00 0.00 0.00 0.00 0.00 0.00 0.00 0.00 0.00 0.00 0.00 0.00 0.00 0.00 0.00 0.00 0.00 0.00 0.00 0.00 0.00 0.00 0.00 0.00 0.00 0.00 0.00 0.00 0.00 0.00 0.00 0.00 0.00 0.00 0.00 0.00 0.00 0.00 0.00 0.00 0.00 0.00
0.00 0.00 0.00 0.00 0.00 0.00 0.00 0.00 0.00 0.00 0.00 0.00 0.00 0.00 0.00 0.00 0.00 0.00 0.00 0.00 0.00 0.00 0.00 0.00 0.00 0.00 0.00 0.00 0.00 0.00 0.00 0.00 0.00 0.00 0.00 0.00 0.00 0.00 0.00 0.00 0.00 0.00 0.00 0.00
0.00 0.00 0.00 0.00 0.00 0.00 0.00 0.00 0.00 0.00 0.00 0.00 0.00 0.00 0.00 0.00 0.00 0.00 0.00 0.00 0.00 0.00 0.00 0.00 0.00 0.00 0.00 0.00 0.00 0.00 0.00 0.00 0.00 0.00 0.00 0.00 0.00 0.00 0.00 0.00 0.00 0.00 0.00 0.00
0.00 0.00 0.00 0.00 0.00 0.00 0.00 0.00 0.00 0.00 0.00 0.00 0.00 0.00 0.00 0.00 0.00 0.00 0.00 0.00 0.00 0.00 0.00 0.00 0.00 0.00 0.00 0.00 0.00 0.00 0.00 0.00 0.00 0.00 0.00 0.00 0.00 0.00 0.00 0.00 0.00 0.00 0.00 0.00
0.00 0.00 0.00 0.00 0.00 0.00 0.00 0.00 0.00 0.00 0.00 0.00 0.00 0.00 0.00 0.00 0.00 0.00 0.00 0.00 0.00 0.00 0.00 0.00 0.00 0.00 0.00 0.00 0.00 0.00 0.00 0.00 0.00 0.00 0.00 0.00 0.00 0.00 0.00 0.00 0.00 0.00 0.00 0.00
0.00 0.00 0.00 0.00 0.00 0.00 0.00 0.00 0.00 0.00 0.00 0.00 0.00 0.00 0.00 0.00 0.00 0.00 0.00 0.00 0.00 0.00 0.00 0.00 0.00 0.00 0.00 0.00 0.00 0.00 0.00 0.00 0.00 0.00 0.00 0.00 0.00 0.00 0.00 0.00 0.00 0.00 0.00 0.00
0.00 0.00 0.00 0.00 0.00 0.00 0.00 0.00 0.00 0.00 0.00 0.00 0.00 0.00 0.00 0.00 0.00 0.00 0.00 0.00 0.00 0.00 0.00 0.00 0.00 0.00 0.00 0.00 0.00 0.00 0.00 0.00 0.00 0.00 0.00 0.00 0.00 0.00 0.00 0.00 0.00 0.00 0.00 0.00
0.00 0.00 0.00 0.00 0.00 0.00 0.00 0.00 0.00 0.00 0.00 0.00 0.00 0.00 0.00 0.00 0.00 0.00 0.00 0.00 0.00 0.00 0.00 0.00 0.00 0.00 0.00 0.00 0.00 0.00 0.00 0.00 0.00 0.00 0.00 0.00 0.00 0.00 0.00 0.00 0.00 0.00 0.00 0.00
0.00 0.00 0.00 0.00 0.00 0.00 0.00 0.00 0.00 0.00 0.00 0.00 0.00 0.00 0.00 0.00 0.00 0.00 0.00 0.00 0.00 0.00 0.00 0.00 0.00 0.00 0.00 0.00 0.00 0.00 0.00 0.00 0.00 0.00 0.00 0.00 0.00 0.00 0.00 0.00 0.00 0.00 0.00 0.00
0.00 0.00 0.00 0.00 0.00 0.00 0.00 0.00 0.00 0.00 0.00 0.00 0.00 0.00 0.00 0.00 0.00 0.00 0.00 0.00 0.00 0.00 0.00 0.00 0.00 0.00 0.00 0.00 0.00 0.00 0.00 0.00 0.00 0.00 0.00 0.00 0.00 0.00 0.00 0.00 0.00 0.00 0.00 0.00
0.00 0.00 0.00 0.00 0.00 0.00 0.00 0.00 0.00 0.00 0.00 0.00 0.00 0.00 0.00 0.00 0.00 0.00 0.00 0.00 0.00 0.00 0.00 0.00 0.00 0.00 0.00 0.00 0.00 0.00 0.00 0.00 0.00 0.00 0.00 0.00 0.00 0.00 0.00 0.00 0.00 0.00 0.00 0.00
MSLP
1011.98 1011.33 1010.82 1010.15 1009.46 1009.19 1008.58 1008.22 1007.22 1005.11 1003.98 1000.54 999.41 999.48 998.28 998.22 997.62 997.23 996.65 996.44 996.70 996.65 996.95 997.55 997.88 998.58 999.40 1000.13 1000.80 1001.49 1002.38 1003.35 1004.43 1005.56 1006.55 1007.50 1008.67 1009.68 1010.73 1011.67 1012.63 1013.65 1014.51 1015.17
1011.39 1010.89 1010.53 1009.64 1008.88 1008.39 1007.86 1007.06 1006.21 1004.84 1003.72 1001.21 1000.03 999.71 998.24 997.72 997.54 997.06 996.57 996.18 996.26 995.97 996.52 997.06 997.39 997.86 998.72 999.64 1000.34 1001.21 1002.40 1003.73 1004.88 1005.84 1006.99 1008.14 1009.21 1010.30 1011.31 1012.23 1013.23 1014.17 1014.87 1015.38
1011.21 1010.53 1009.76 1008.68 1006.98 1006.60 1005.93 1005.37 1004.85 1004.11 1002.75 1000.91 999.58 999.53 998.81 997.84 997.40 996.61 996.31 995.65 995.48 995.52 995.67 996.02 996.35 997.06 997.77 998.52 999.76 1000.77 1002.09 1003.64 1004.88 1005.95 1007.10 1008.35 1009.44 1010.58 1011.70 1012.66 1013.47 1014.28 1014.98 1015.51
1011.29 1010.56 1008.64 1006.60 1005.53 1005.05 1004.18 1003.27 1003.05 1002.19 1001.11 1000.04 999.18 998.27 998.24 998.00 997.35 996.21 995.44 994.92 994.45 994.28 994.58 994.67 995.05 996.18 997.50 998.72 999.82 1000.72 1002.12 1003.64 1004.93 1006.19 1007.42 1008.49 1009.72 1010.80 1011.82 1012.86 1013.70 1014.48 1015.33 1015.78
1011.13 1009.70 1007.61 1006.24 1004.82 1004.13 1003.04 1001.71 1001.91 1001.94 1000.88 999.76 998.56 997.78 996.99 997.24 996.61 995.66 994.88 993.68 993.22 993.11 993.21 993.61 994.38 995.36 996.91 998.45 999.82 1000.73 1001.81 1003.24 1004.66 1005.83 1007.21 1008.56 1009.95 1011.24 1012.34 1013.15 1013.89 1014.74 1015.42 1015.89
1010.46 1008.87 1006.51 1004.14 1002.69 1001.74 1001.88 1001.85 1001.53 1001.01 1000.11 999.29 998.83 998.51 996.29 996.76 996.05 995.12 994.52 993.78 993.15 992.51 992.30 992.85 993.53 994.96 996.26 997.53 998.73 999.95 1000.93 1002.26 1003.91 1005.30 1006.62 1008.22 1009.59 1010.77 1012.01 1013.07 1013.95 1014.77 1015.34 1015.78
1008.49 1007.58 1005.18 1001.28 1000.88 1002.20 1002.55 1001.32 999.78 999.97 999.25 998.68 998.48 997.56 996.02 995.23 995.70 995.10 994.23 993.32 992.48 992.24 992.10 992.23 993.72 994.70 995.91 997.13 997.66 998.78 1000.44 1002.21 1003.66 1004.94 1005.93 1006.95 1009.19 1010.55 1011.54 1012.56 1013.74 1014.72 1015.37 1015.62
1007.33 1006.23 1003.47 1000.74 1000.64 1001.44 1000.16 999.91 999.20 998.45 998.53 998.48 997.40 996.45 996.03 995.52 995.30 994.54 994.17 993.14 991.98 991.92 992.18 992.26 993.00 994.17 995.83 997.48 998.49 999.44 1000.66 1002.46 1004.02 1005.40 1006.64 1008.06 1009.09 1010.64 1011.50 1012.21 1013.13 1014.07 1014.77 1015.32
1004.37 1002.39 1000.51 1000.04 1000.05 999.53 999.35 999.08 998.35 998.24 997.45 997.04 996.22 996.11 995.26 994.19 994.85 994.51 994.00 993.13 991.73 991.65 991.54 992.14 992.79 993.43 994.81 996.42 997.93 999.50 1001.17 1002.76 1004.05 1005.57 1006.94 1008.10 1008.93 1010.79 1011.58 1012.34 1012.62 1012.83 1013.41 1014.35
1002.70 1000.26 999.90 999.44 998.96 998.15 998.31 998.29 998.08 997.61 996.62 996.01 995.49 995.12 994.99 993.94 994.28 994.07 993.91 993.31 992.76 992.16 992.54 993.25 993.81 994.69 996.29 997.58 999.00 999.92 1001.68 1003.30 1004.62 1005.76 1007.30 1008.74 1009.12 1010.33 1012.08 1011.95 1012.64 1013.01 1012.82 1014.24
1000.05 999.24 999.34 998.15 997.72 997.31 996.89 996.68 996.70 996.26 995.65 994.86 994.65 994.06 994.10 993.62 993.51 993.59 993.74 993.83 993.86 993.71 994.33 994.68 995.05 996.44 997.72 998.31 999.61 1001.19 1002.89 1004.44 1005.54 1006.73 1008.06 1008.66 1010.18 1010.32 1011.13 1012.16 1012.04 1012.54 1012.82 1013.87
998.20 998.04 997.98 997.14 996.61 996.16 995.97 995.53 995.41 995.16 994.33 993.93 994.00 993.01 993.19 993.08 993.38 993.37 993.98 994.52 994.59 995.70 995.23 995.89 996.50 997.64 998.69 999.31 999.95 1001.32 1003.46 1005.12 1006.62 1006.53 1007.34 1008.84 1009.88 1011.17 1011.89 1012.24 1012.26 1012.76 1013.09 1013.86
997.31 996.98 996.75 996.28 995.61 995.06 994.86 994.37 994.15 993.64 993.24 992.67 992.23 992.13 992.45 992.81 993.22 993.20 994.04 994.63 995.52 995.75 995.57 996.56 997.44 998.36 999.37 1000.13 1000.83 1001.97 1003.45 1005.07 1006.30 1007.67 1008.34 1009.31 1010.59 1011.31 1012.08 1013.11 1013.03 1013.48 1013.98 1014.40
996.40 996.41 996.09 995.41 994.67 993.94 993.61 993.45 993.32 992.56 992.24 991.88 992.04 992.10 992.12 992.09 992.14 993.43 994.05 994.78 995.32 996.14 996.67 996.78 998.07 999.11 999.86 1000.51 1001.71 1002.96 1004.25 1005.32 1006.53 1007.79 1008.83 1009.82 1010.70 1011.34 1012.23 1012.79 1013.64 1014.44 1014.73 1015.03
995.29 995.11 994.89 994.39 994.04 993.43 993.05 992.90 992.76 992.13 991.51 991.86 991.82 992.03 992.07 992.45 992.88 993.58 994.49 995.25 996.01 996.57 997.18 997.51 998.73 999.93 1000.59 1001.34 1002.29 1003.45 1004.74 1006.07 1007.04 1007.96 1008.99 1009.81 1010.72 1011.64 1012.40 1013.17 1014.05 1014.74 1015.24 1015.40
994.74 994.55 994.36 994.21 993.68 993.13 992.61 992.38 992.16 991.96 991.75 992.31 992.38 992.52 992.67 993.11 993.53 994.27 995.07 995.73 995.98 996.90 997.78 998.34 999.42 1000.32 1001.26 1002.10 1003.13 1004.44 1005.33 1006.30 1007.22 1008.02 1008.80 1009.84 1010.86 1011.83 1012.76 1013.69 1014.44 1015.02 1015.45 1015.75
995.07 994.68 994.37 994.05 993.74 993.17 992.51 992.06 991.93 991.86 992.11 992.49 992.78 993.13 993.38 994.03 994.67 995.39 996.07 996.68 997.14 997.64 998.13 998.98 1000.13 1001.14 1001.97 1002.51 1003.70 1004.73 1005.68 1006.57 1007.26 1008.09 1008.89 1009.79 1010.70 1011.63 1012.56 1013.57 1014.30 1014.85 1015.34 1015.69
995.74 995.20 994.70 994.25 993.55 992.86 992.40 992.22 992.17 992.19 992.63 993.15 993.62 994.15 995.02 995.27 996.00 996.70 996.94 997.43 998.28 998.81 999.28 1000.16 1000.98 1001.79 1002.39 1003.43 1004.23 1005.16 1005.88 1006.79 1007.35 1008.11 1009.05 1009.94 1010.75 1011.54 1012.53 1013.34 1014.10 1014.68 1015.34 1015.86
996.08 995.61 995.13 994.59 994.09 993.60 993.37 993.21 993.43 993.20 993.47 994.11 994.79 995.67 996.18 996.17 996.71 997.43 997.77 998.40 999.25 999.89 1000.78 1001.14 1001.77 1002.50 1003.23 1004.01 1004.80 1005.57 1006.05 1006.94 1007.46 1008.29 1009.22 1010.16 1010.99 1011.71 1012.58 1013.40 1014.25 1014.87 1015.49 1015.94
996.60 996.20 995.79 995.37 994.96 994.81 994.57 994.50 994.37 994.29 994.72 995.25 996.12 996.80 997.41 997.81 997.93 998.54 999.20 999.94 1000.40 1000.96 1001.44 1001.96 1002.87 1003.62 1003.98 1004.62 1005.21 1006.07 1006.72 1007.33 1007.94 1008.76 1009.38 1010.35 1011.26 1011.99 1012.85 1013.74 1014.45 1015.04 1015.62 1016.05
997.23 996.85 996.51 996.14 995.77 995.66 995.47 995.46 995.37 995.56 996.03 996.33 996.93 997.82 998.41 998.77 998.81 999.20 1000.01 1000.72 1001.61 1001.83 1002.17 1002.73 1003.54 1004.01 1004.42 1005.12 1005.76 1006.54 1007.22 1007.69 1008.35 1009.14 1009.86 1010.73 1011.51 1012.26 1013.18 1014.07 1014.63 1015.07 1015.68 1016.22
997.89 997.63 997.33 997.03 996.79 996.63 996.48 996.49 996.50 996.55 996.98 997.46 997.99 998.64 998.95 999.53 999.82 1000.22 1000.84 1001.03 1001.70 1002.11 1003.02 1003.60 1004.09 1004.59 1005.11 1005.58 1006.20 1006.90 1007.59 1008.15 1008.80 1009.51 1010.27 1011.01 1011.74 1012.49 1013.22 1014.09 1014.54 1015.32 1015.75 1016.59
998.61 998.34 998.15 997.98 997.83 997.68 997.61 997.60 997.61 997.84 998.14 998.56 998.84 999.30 999.70 1000.24 1000.59 1000.77 1001.48 1002.18 1002.49 1002.99 1003.56 1004.16 1004.68 1005.19 1005.65 1006.23 1006.94 1007.64 1008.18 1008.43 1009.16 1009.98 1010.60 1011.37 1011.88 1012.71 1013.24 1014.02 1014.72 1015.24 1016.09 1016.86
999.26 999.08 998.98 998.89 998.76 998.60 998.65 998.86 998.95 999.07 999.10 999.28 999.73 1000.07 1000.30 1000.75 1001.36 1001.72 1002.24 1002.71 1003.21 1003.74 1004.22 1004.63 1005.24 1005.81 1006.19 1006.87 1007.40 1007.93 1008.50 1009.16 1009.76 1010.46 1010.95 1011.49 1012.29 1012.90 1013.19 1013.85 1014.91 1015.52 1016.44 1017.02
999.79 999.71 999.61 999.50 999.49 999.57 999.68 999.86 999.83 999.87 1000.02 1000.19 1000.54 1000.91 1001.31 1001.60 1001.86 1002.41 1002.77 1003.25 1003.68 1004.24 1004.86 1005.23 1005.74 1006.26 1006.68 1007.15 1007.67 1008.26 1008.75 1009.36 1009.92 1010.74 1011.34 1012.01 1012.36 1012.88 1013.31 1014.12 1014.99 1015.74 1016.46 1017.23
999.97 1000.06 1000.22 1000.29 1000.38 1000.47 1000.48 1000.50 1000.61 1000.84 1000.98 1001.24 1001.47 1001.71 1001.97 1002.29 1002.64 1003.05 1003.41 1003.83 1004.19 1004.66 1005.25 1005.84 1006.34 1006.75 1007.19 1007.73 1008.21 1008.74 1009.21 1009.78 1010.38 1010.91 1011.41 1012.03 1012.48 1012.89 1013.55 1014.34 1015.11 1015.88 1016.64 1017.31
1000.28 1000.37 1000.63 1000.91 1000.91 1001.03 1001.15 1001.30 1001.46 1001.58 1001.66 1001.82 1002.13 1002.40 1002.66 1003.06 1003.33 1003.62 1003.96 1004.56 1005.08 1005.52 1005.88 1006.31 1006.77 1007.30 1007.78 1008.21 1008.57 1009.08 1009.48 1009.94 1010.43 1011.03 1011.62 1012.12 1012.57 1013.11 1013.79 1014.54 1015.35 1016.10 1016.69 1017.16
Thickness
5417 5431 5432 5443 5460 5466 5468 5471 5467 5510 5521 5579 5601 5601 5620 5622 5630 5638 5649 5654 5656 5662 5665 5667 5672 5672 5670 5669 5666 5664 5658 5651 5640 5630 5620 5612 5601 5593 5583 5574 5565 5556 5548 5541
5405 5423 5420 5426 5449 5459 5462 5472 5475 5496 5508 5569 5583 5577 5601 5614 5615 5623 5638 5645 5647 5652 5651 5656 5662 5663 5661 5658 5655 5652 5645 5635 5624 5615 5604 5594 5585 5576 5567 5558 5549 5541 5533 5529
5399 5415 5417 5403 5456 5457 5465 5475 5485 5487 5521 5550 5563 5567 5582 5596 5605 5613 5621 5632 5639 5640 5645 5653 5657 5657 5656 5655 5647 5643 5634 5620 5610 5600 5589 5580 5571 5562 5551 5542 5534 5528 5521 5517
5379 5393 5381 5436 5459 5465 5472 5485 5489 5500 5518 5538 5551 5567 5570 5581 5589 5604 5618 5625 5632 5640 5641 5648 5654 5647 5642 5638 5632 5627 5618 5605 5596 5583 5571 5564 5556 5546 5536 5528 5520 5514 5508 5501
5374 5376 5399 5421 5451 5458 5466 5475 5486 5481 5501 5526 5543 5551 5561 5571 5584 5599 5605 5623 5632 5636 5639 5643 5644 5643 5633 5624 5617 5613 5607 5596 5584 5572 5560 5549 5538 5528 5518 5511 5506 5501 5493 5488
5349 5374 5374 5434 5467 5476 5463 5416 5474 5484 5494 5507 5516 5497 5547 5563 5571 5582 5594 5606 5617 5626 5631 5637 5641 5634 5626 5619 5612 5606 5600 5590 5576 5563 5551 5538 5526 5516 5506 5498 5493 5486 5479 5474
5377 5378 5396 5459 5471 5443 5403 5431 5476 5472 5479 5491 5490 5505 5538 5558 5553 5565 5583 5598 5609 5613 5621 5630 5625 5622 5616 5609 5608 5603 5589 5573 5562 5550 5541 5534 5516 5504 5496 5489 5480 5473 5466 5461
5350 5374 5389 5447 5444 5419 5440 5449 5454 5463 5469 5472 5492 5505 5517 5541 5539 5554 5569 5583 5599 5602 5603 5612 5617 5614 5604 5591 5582 5580 5569 5555 5542 5531 5520 5509 5501 5489 5483 5478 5470 5462 5455 5449
5395 5390 5431 5439 5431 5438 5436 5435 5446 5444 5460 5468 5484 5496 5512 5538 5530 5541 5550 5561 5584 5593 5598 5600 5603 5608 5598 5583 5573 5560 5548 5536 5526 5514 5502 5493 5488 5472 5466 5461 5459 5457 5451 5443
5400 5429 5428 5430 5434 5444 5437 5429 5428 5433 5445 5460 5475 5482 5496 5519 5521 5529 5533 5545 5556 5568 5567 5563 5568 5569 5563 5555 5547 5544 5530 5516 5506 5498 5486 5475 5471 5462 5447 5448 5443 5441 5440 5429
5411 5424 5422 5434 5436 5436 5437 5438 5429 5430 5439 5451 5460 5477 5496 5510 5515 5522 5524 5529 5531 5533 5532 5537 5543 5539 5534 5534 5526 5516 5504 5494 5485 5476 5464 5460 5450 5448 5440 5431 5432 5430 5427 5418
5408 5422 5417 5429 5436 5440 5436 5434 5433 5433 5443 5446 5453 5478 5485 5496 5504 5511 5509 5509 5516 5508 5519 5518 5517 5512 5509 5509 5509 5501 5486 5472 5457 5457 5451 5444 5438 5426 5419 5416 5417 5414 5411 5405
5415 5422 5422 5429 5436 5442 5438 5440 5439 5440 5441 5451 5466 5477 5481 5489 5490 5494 5496 5496 5493 5498 5505 5501 5498 5494 5492 5491 5490 5483 5470 5458 5450 5440 5435 5428 5417 5413 5405 5397 5398 5394 5392 5391
5419 5416 5420 5430 5436 5444 5443 5442 5439 5444 5449 5455 5460 5466 5474 5481 5484 5482 5486 5485 5486 5484 5487 5492 5485 5480 5477 5474 5466 5459 5448 5441 5432 5424 5416 5409 5405 5401 5394 5390 5384 5379 5379 5378
5427 5425 5426 5433 5435 5442 5443 5443 5442 5447 5451 5448 5456 5459 5463 5470 5476 5476 5471 5471 5472 5472 5474 5477 5468 5461 5457 5454 5449 5441 5430 5420 5415 5409 5404 5401 5395 5390 5385 5381 5374 5370 5365 5364
5432 5430 5428 5427 5434 5441 5447 5446 5445 5448 5447 5446 5450 5453 5458 5457 5460 5462 5462 5462 5466 5463 5460 5458 5454 5448 5443 5439 5430 5420 5416 5410 5405 5403 5401 5396 5389 5381 5375 5368 5363 5358 5353 5349
5421 5421 5424 5425 5429 5438 5444 5447 5447 5450 5448 5445 5446 5445 5446 5444 5445 5446 5445 5447 5448 5447 5448 5445 5438 5432 5428 5427 5418 5412 5408 5404 5402 5399 5395 5389 5382 5376 5369 5361 5354 5350 5346 5341
5406 5410 5412 5416 5427 5439 5441 5443 5443 5447 5444 5441 5436 5429 5420 5422 5423 5421 5425 5427 5426 5429 5430 5426 5422 5419 5417 5412 5409 5404 5403 5398 5397 5392 5384 5379 5374 5369 5360 5354 5348 5343 5337 5332
5398 5399 5403 5408 5413 5420 5424 5426 5423 5429 5428 5425 5422 5417 5413 5416 5415 5411 5412 5411 5410 5414 5409 5411 5408 5407 5404 5401 5398 5395 5395 5389 5388 5382 5375 5368 5362 5358 5350 5343 5336 5331 5326 5323
5388 5390 5393 5398 5401 5406 5410 5411 5414 5418 5416 5412 5407 5405 5404 5404 5405 5404 5401 5398 5399 5398 5399 5400 5395 5392 5393 5391 5388 5383 5381 5378 5375 5369 5365 5357 5350 5344 5337 5330 5326 5321 5317 5315
5377 5379 5383 5388 5392 5396 5400 5402 5407 5407 5404 5405 5402 5398 5396 5395 5399 5399 5393 5390 5386 5390 5391 5388 5383 5384 5385 5382 5378 5373 5369 5367 5363 5357 5352 5344 5339 5335 5328 5321 5317 5315 5312 5309
5368 5370 5373 5377 5382 5385 5388 5391 5394 5397 5395 5393 5391 5388 5391 5389 5389 5387 5385 5388 5386 5385 5378 5376 5375 5374 5372 5371 5368 5364 5359 5356 5352 5348 5342 5336 5331 5326 5321 5315 5314 5310 5309 5305
5361 5362 5363 5365 5369 5372 5375 5378 5380 5382 5383 5382 5383 5383 5383 5379 5380 5382 5378 5374 5373 5370 5368 5366 5365 5363 5362 5359 5354 5349 5347 5348 5343 5337 5332 5327 5325 5320 5318 5314 5311 5310 5304 5299
5353 5354 5356 5356 5358 5363 5365 5364 5365 5367 5370 5371 5370 5370 5371 5370 5367 5366 5364 5363 5361 5360 5358 5357 5353 5350 5349 5345 5343 5341 5339 5334 5330 5326 5324 5322 5316 5315 5316 5314 5308 5303 5296 5292
5344 5346 5347 5350 5351 5351 5352 5352 5355 5358 5359 5359 5358 5357 5356 5356 5358 5355 5356 5354 5352 5350 5346 5345 5342 5339 5338 5336 5334 5331 5329 5326 5324 5319 5317 5314 5315 5314 5313 5308 5302 5296 5291 5284
5341 5340 5340 5339 5341 5341 5342 5344 5345 5344 5345 5345 5345 5345 5345 5344 5343 5343 5343 5343 5343 5340 5337 5334 5332 5332 5330 5327 5325 5323 5322 5320 5318 5316 5315 5312 5312 5311 5307 5302 5296 5290 5283 5278
5330 5331 5331 5329 5333 5333 5333 5334 5334 5335 5336 5337 5336 5336 5336 5335 5335 5335 5335 5332 5329 5328 5327 5326 5325 5323 5321 5319 5319 5318 5317 5317 5315 5313 5311 5309 5308 5305 5300 5295 5288 5282 5278 5275